[[{"header":{"parameterUnit":"m.s-1","parameterCategory":1,"la1":30.2991,"la2":30.254,"lo1":-89.0895,"lo2":-89.0444,"dy":0.0017,"dx":0.0017,"nx":28,"ny":28,"refTime":"2023-07-29T03:00:00:Z","depth":0,"parameterNumber":2,"parameterNumberName":"U-component_of_WINDS"},"data":[0,0,0,0,0,0,0,0,0,0,0,0,0,0,0,0,0,0,0,0,0,0,0,0,0,0,0,0,0,0,0,0,0,0,0,0,0,0,0,0,0,0,0,0,0,0,0,0,0,0,0,0,0,0,0,0,0,0,5.1748,5.1748,0,5.1759,5.1759,5.1759,5.1595,5.1591,5.1587,5.1582,5.1596,5.1601,5.1605,0,0,0,0,0,0,0,0,0,0,0,0,0,5.1585,5.1589,5.1748,5.1748,5.1748,5.1759,5.1759,5.1759,5.1596,5.1591,5.1585,5.158,5.1595,5.16,5.1605,0,0,0,0,0,0,0,0,0,0,0,0,0,5.1632,5.159,5.1747,5.1668,5.1661,5.1759,5.1759,5.1759,5.1597,5.1591,5.1584,5.1578,5.1593,5.1599,5.1606,5.1782,0,0,5.1627,5.163,0,0,0,0,0,0,0,0,5.163,5.1638,5.1679,5.1673,5.1666,5.1669,5.1706,5.1767,5.1599,5.1622,5.1582,5.1575,5.1626,5.163,5.1646,5.1782,5.1783,5.1627,5.1632,5.1634,5.1636,0,0,0,0,0,0,0,5.1627,5.1637,5.1752,5.168,5.1672,5.1631,5.1631,5.1717,5.1661,5.1619,5.1607,5.1611,5.1621,5.164,5.1645,5.1783,5.1627,5.1633,5.1637,5.164,5.2059,5.2066,0,0,0,0,0,0,5.1634,5.1635,5.1752,5.1752,5.1631,5.164,5.1639,5.1675,5.166,5.1651,5.1616,5.1603,5.1632,5.1638,5.1645,5.1846,5.1634,5.1641,5.1645,5.2052,5.2061,5.2068,0,0,0,0,0,0,5.1631,5.1646,5.1751,5.1691,5.1701,5.165,5.1691,5.1678,5.1697,5.1658,5.1647,5.1646,5.1627,5.1636,5.1748,5.1844,5.1644,5.165,5.2044,5.2055,5.2064,5.2252,0,0,0,0,0,0,5.1627,5.1646,5.1712,5.1693,5.1705,5.1854,5.1697,5.1683,5.1709,5.1692,5.1683,5.1675,5.1622,5.1739,5.1755,5.185,5.1655,5.2035,5.2049,5.2061,5.2236,5.2267,5.2294,0,0,0,0,0,5.1622,5.1766,5.1716,5.1731,5.1786,5.186,5.1866,5.1802,5.1718,5.1783,5.1757,5.1675,5.1832,5.1751,5.1768,5.1867,5.2028,5.2045,5.206,5.2224,5.2261,5.2293,0,0,0,0,0,0,5.1799,5.1762,5.1707,5.1849,5.1859,5.1832,5.1913,5.1845,5.1879,5.1862,5.1781,5.1781,5.1905,5.1898,5.1809,5.2034,5.1915,5.1935,5.2034,5.2069,5.2097,5.2095,5.1661,0,0,0,0,0,5.1855,5.1917,5.1881,5.201,5.2018,5.1965,5.1995,5.1944,5.1951,5.1955,5.1937,5.1948,5.1998,5.2034,5.2079,5.2236,5.2229,5.2312,5.234,5.2364,5.2381,5.2459,5.2494,5.212,5.212,5.212,0,0,5.197,5.1958,5.2002,5.2045,5.2047,5.2112,5.197,5.2046,5.2094,5.1967,5.207,5.2058,5.2064,5.2198,5.2256,5.2196,5.2483,5.2384,5.2403,5.2408,5.2479,5.2515,5.2546,5.2131,5.2129,5.2128,0,0,5.2213,5.2211,5.2316,5.232,5.2323,5.2287,5.2313,5.2296,5.2282,5.2385,5.2289,5.2346,5.2436,5.2443,5.2459,5.2702,5.2627,5.272,5.2868,5.2945,5.2974,5.3,5.3083,5.3115,5.2738,5.2738,5.2739,0,5.2356,5.245,5.2379,5.246,5.2481,5.2368,5.2472,5.248,5.25,5.2516,5.2448,5.2557,5.2554,5.2685,5.2745,5.2763,5.2787,5.2719,5.2976,5.3001,5.3024,5.3102,5.3134,5.2749,5.2748,5.2747,5.2746,0,5.2624,5.2691,5.2776,5.2794,5.2824,5.2918,5.286,5.2899,5.2846,5.2817,5.2921,5.2913,5.2953,5.2981,5.2932,5.3106,5.3067,5.299,5.2868,5.3072,5.3144,5.3173,5.2765,5.2761,5.2758,5.2755,0,0,5.2978,5.2954,5.2986,5.2991,5.2986,5.3036,5.3124,5.3161,5.3195,5.3212,5.3282,5.336,5.3287,5.3305,5.3254,5.3323,5.3512,5.3235,5.3234,5.3284,5.3699,5.3755,5.3792,5.3463,5.3468,5.3473,5.3697,0,5.3211,5.3357,5.3294,5.3446,5.3505,5.3398,5.3474,5.3479,5.3454,5.3501,5.3473,5.3528,5.3429,5.3439,5.3502,5.3476,5.3593,5.3459,5.3525,5.3528,5.3523,5.383,5.389,5.4102,5.3726,5.373,5.3734,0,5.3501,5.3527,5.3685,5.3665,5.3688,5.3757,5.3784,5.3831,5.3834,5.3811,5.383,5.3764,5.3847,5.3729,5.3841,5.3751,5.3775,5.3766,5.3772,5.3773,5.3641,5.3835,5.4169,5.4199,5.3778,5.3775,5.3772,0,5.3738,5.3814,5.3916,5.3925,5.3906,5.3956,5.3951,5.3947,5.3973,5.3998,5.4013,5.4048,5.4067,5.4096,5.404,5.3959,5.4159,5.4037,5.4141,5.4142,5.4185,5.4182,5.4523,5.4207,5.4207,5.4206,5.4205,0,5.4003,5.4102,5.4021,5.4085,5.4192,5.412,5.4228,5.4212,5.4209,5.4266,5.4178,5.4233,5.4158,5.4207,5.4165,5.4262,5.4273,5.4255,5.4242,5.4261,5.4263,5.4272,5.4255,5.4214,5.4213,5.4211,5.421,0,5.4284,5.4235,5.4339,5.4312,5.4307,5.4388,5.4364,5.4421,5.439,5.4463,5.4476,5.4428,5.448,5.4428,5.4478,5.4449,5.4579,5.4546,5.4577,5.4566,5.4671,5.4661,5.5028,5.507,5.4731,5.4735,5.4737,0,5.4454,5.4528,5.4508,5.4539,5.4538,5.4591,5.4615,5.4547,5.4576,5.4583,5.4639,5.4683,5.4714,5.4803,5.4772,5.4809,5.4774,5.49,5.4779,5.4794,5.4771,5.4766,5.4771,5.4924,5.4928,5.4931,5.4934,0,5.476,5.4731,5.4769,5.4798,5.483,5.485,5.4864,5.4895,5.4824,5.4861,5.4912,5.4937,5.4986,5.503,5.5057,5.5052,5.4981,5.4972,5.4997,5.5016,5.5029,5.5019,5.464,5.4964,5.4961,5.4958,5.4957,5.4956,5.4988,5.5046,5.504,5.5085,5.5088,5.5102,5.5152,5.5126,5.5167,5.52,5.5159,5.5221,5.522,5.5249,5.5252,5.5299,5.5246,5.5283,5.5292,5.5301,5.5315,5.5025,5.5304,5.5304,5.5303,5.5302,5.5301,0,5.5284,5.5275,5.5317,5.5337,5.5372,5.5302,5.5313,5.5346,5.5402,5.5406,5.5438,5.5496,5.5538,5.551,5.5546,5.5589,5.5557,5.56,5.5594,5.5593,5.5363,5.5335,5.5625,5.5625,5.5625,5.5625,5.5625,5.5625,5.5443,5.5537,5.5507,5.5601,5.5591,5.565,5.5661,5.5674,5.5676,5.5744,5.5777,5.5759,5.575,5.5784,5.5819,5.5809,5.5825,5.5879,5.5858,5.5642,5.561,5.558,5.5553,5.5884,5.5885,5.6084,5.6086,5.6088]},{"header":{"parameterUnit":"m.s-1","parameterCategory":1,"la1":30.2991,"la2":30.254,"lo1":-89.0895,"lo2":-89.0444,"dy":0.0017,"dx":0.0017,"nx":28,"ny":28,"refTime":"2023-07-29T03:00:00:Z","depth":0,"parameterNumber":3,"parameterNumberName":"V-component_of_WINDS"},"data":[0,0,0,0,0,0,0,0,0,0,0,0,0,0,0,0,0,0,0,0,0,0,0,0,0,0,0,0,0,0,0,0,0,0,0,0,0,0,0,0,0,0,0,0,0,0,0,0,0,0,0,0,0,0,0,0,0,0,2.7091,2.7091,0,2.7139,2.714,2.714,2.7113,2.7112,2.711,2.7109,2.7157,2.7159,2.7162,0,0,0,0,0,0,0,0,0,0,0,0,0,2.6971,2.6974,2.7091,2.7091,2.7092,2.7139,2.714,2.714,2.7113,2.7112,2.711,2.7108,2.7156,2.7159,2.7162,0,0,0,0,0,0,0,0,0,0,0,0,0,2.7022,2.6974,2.7091,2.7084,2.7084,2.7139,2.714,2.7141,2.7114,2.7111,2.7109,2.7108,2.7155,2.7159,2.7162,2.7226,0,0,2.7174,2.7176,0,0,0,0,0,0,0,0,2.7019,2.7026,2.7084,2.7085,2.7085,2.7118,2.7115,2.7169,2.7114,2.7102,2.7109,2.7107,2.7145,2.715,2.7163,2.7228,2.723,2.7174,2.7177,2.7178,2.7179,0,0,0,0,0,0,0,2.7015,2.7024,2.711,2.7085,2.7085,2.7078,2.7083,2.7125,2.7134,2.7103,2.7101,2.7107,2.7145,2.716,2.7164,2.7231,2.7174,2.7177,2.718,2.7181,2.7348,2.735,0,0,0,0,0,0,2.7013,2.7021,2.7108,2.7111,2.7046,2.7081,2.7087,2.7109,2.7134,2.7136,2.7109,2.7106,2.7154,2.716,2.7166,2.724,2.7178,2.7182,2.7184,2.7346,2.7348,2.735,0,0,0,0,0,0,2.701,2.7021,2.7106,2.7066,2.7076,2.7086,2.7111,2.7111,2.7126,2.7139,2.714,2.7123,2.7153,2.716,2.7211,2.7241,2.7183,2.7187,2.7343,2.7346,2.7349,2.739,0,0,0,0,0,0,2.7007,2.702,2.7045,2.7067,2.7078,2.7152,2.7113,2.7114,2.7133,2.7129,2.7152,2.7153,2.7152,2.7205,2.7214,2.7245,2.719,2.734,2.7345,2.7348,2.7386,2.7394,2.7401,0,0,0,0,0,2.7003,2.7055,2.7047,2.7058,2.711,2.7154,2.716,2.7158,2.7135,2.716,2.7168,2.7153,2.7237,2.7211,2.7221,2.7253,2.7338,2.7343,2.7348,2.7383,2.7393,2.7401,0,0,0,0,0,0,2.7037,2.7058,2.7049,2.711,2.713,2.7149,2.718,2.7169,2.7196,2.7191,2.7187,2.7192,2.7244,2.7254,2.7225,2.7315,2.7284,2.7291,2.7307,2.7316,2.7324,2.732,2.7193,0,0,0,0,0,2.7052,2.7086,2.7102,2.7154,2.7165,2.7171,2.719,2.7186,2.7207,2.7215,2.7227,2.7246,2.7277,2.7297,2.7327,2.7388,2.7391,2.7415,2.7422,2.7429,2.7434,2.7465,2.7475,2.7366,2.7366,2.7366,0,0,2.7083,2.7098,2.712,2.7161,2.7177,2.7211,2.7178,2.7217,2.7241,2.7221,2.7268,2.7278,2.7299,2.7355,2.738,2.7364,2.7465,2.7435,2.744,2.7442,2.7471,2.7481,2.749,2.737,2.7369,2.7369,0,0,2.7155,2.7172,2.7216,2.7231,2.7255,2.7258,2.7269,2.7289,2.7294,2.7342,2.7327,2.7356,2.7409,2.7425,2.7439,2.7516,2.7502,2.7526,2.7565,2.7595,2.7604,2.7611,2.7636,2.7646,2.7532,2.7532,2.7532,0,2.719,2.7242,2.7239,2.7278,2.7296,2.7279,2.7322,2.7338,2.7369,2.7381,2.7364,2.7429,2.7443,2.75,2.7519,2.7532,2.7542,2.7523,2.7603,2.761,2.7617,2.7641,2.7651,2.7534,2.7534,2.7534,2.7534,0,2.7282,2.7319,2.7351,2.7382,2.7403,2.7444,2.7446,2.7468,2.7463,2.7467,2.7515,2.7531,2.7561,2.7575,2.757,2.7631,2.7621,2.7603,2.7572,2.763,2.7652,2.7662,2.7538,2.7537,2.7536,2.7536,0,0,2.7379,2.7406,2.7418,2.7431,2.7455,2.7482,2.7521,2.7552,2.7569,2.7592,2.7623,2.7668,2.7651,2.7668,2.7665,2.7691,2.7748,2.767,2.767,2.7682,2.7813,2.7825,2.7836,2.7739,2.7741,2.7742,2.7811,0,2.7451,2.7521,2.7518,2.7582,2.7614,2.7598,2.7631,2.7649,2.7654,2.7681,2.7686,2.7717,2.7694,2.7704,2.7729,2.7736,2.7774,2.7731,2.7767,2.7768,2.776,2.7848,2.7861,2.7925,2.782,2.7821,2.7822,0,2.7546,2.757,2.7638,2.7655,2.7668,2.7699,2.7725,2.7751,2.777,2.7772,2.779,2.7781,2.7819,2.7788,2.7839,2.7809,2.7824,2.7829,2.7831,2.7833,2.7798,2.785,2.7945,2.7954,2.7836,2.7835,2.7834,0,2.7606,2.7657,2.7702,2.7714,2.7736,2.7757,2.7767,2.7784,2.7802,2.7825,2.7836,2.7863,2.7877,2.7898,2.7896,2.7873,2.7947,2.7916,2.7948,2.7948,2.7963,2.7962,2.806,2.7976,2.7975,2.7975,2.7975,0,2.7687,2.7728,2.773,2.7758,2.7803,2.7799,2.7843,2.7851,2.7866,2.7894,2.7881,2.7908,2.7905,2.7931,2.793,2.7971,2.7979,2.798,2.7978,2.798,2.7979,2.7988,2.7983,2.7978,2.7977,2.7977,2.7976,0,2.7762,2.7765,2.7814,2.783,2.7835,2.7867,2.788,2.7906,2.7909,2.7945,2.7953,2.7958,2.7988,2.7989,2.8024,2.8023,2.8072,2.8067,2.8066,2.8064,2.8096,2.8092,2.8201,2.8215,2.8123,2.8124,2.8125,0,2.7812,2.7843,2.7863,2.7881,2.7892,2.7921,2.7939,2.7936,2.7955,2.7977,2.8,2.8029,2.8052,2.81,2.8106,2.8132,2.8126,2.8163,2.813,2.8129,2.8124,2.8122,2.8124,2.8169,2.817,2.817,2.8171,0,2.7901,2.79,2.7926,2.7953,2.7974,2.7995,2.8014,2.8029,2.8028,2.8049,2.808,2.8098,2.8132,2.816,2.8185,2.8194,2.8182,2.8181,2.819,2.8191,2.8188,2.8187,2.8082,2.8179,2.8178,2.8177,2.8177,2.8177,2.7964,2.7989,2.8006,2.8035,2.8049,2.8067,2.8091,2.8097,2.8123,2.8151,2.8148,2.8181,2.8197,2.8229,2.824,2.8265,2.8252,2.8265,2.8267,2.827,2.8272,2.8185,2.8269,2.8269,2.8269,2.8269,2.8269,0,2.8049,2.8059,2.8086,2.8112,2.8135,2.8122,2.8142,2.8161,2.8191,2.8207,2.8229,2.8263,2.829,2.8298,2.8323,2.8341,2.8336,2.8348,2.8346,2.8347,2.8284,2.8273,2.8351,2.8351,2.8351,2.8351,2.8351,2.8351,2.8096,2.8139,2.814,2.8188,2.8198,2.823,2.8242,2.8258,2.827,2.8309,2.8331,2.8336,2.8348,2.8374,2.8397,2.8399,2.8408,2.8421,2.8421,2.8361,2.8352,2.8344,2.8334,2.8424,2.8424,2.8482,2.8482,2.8483]}]]